Quincy, IL

6:42 AM CDT on August 19, 2017 (GMT -0500)
Quincy Regional-Baldwin

Weather History for KUIN - October, 2013

Change the Weather History Date:

Wednesday, October 16, 2013

  Actual Average Record
Temperature  
Mean Temperature 50 °F 55 °F  
Max Temperature 55 °F 65 °F 88 °F (1950)
Min Temperature 45 °F 44 °F 29 °F (2002)
Degree Days  
Heating Degree Days 15 11  
Month to date heating degree days 80 139  
Since 1 July heating degree days 117 226  
Cooling Degree Days 0 0  
Month to date cooling degree days 43 14  
Year to date cooling degree days 1242 1090  
Moisture  
Dew Point 39 °F    
Average Humidity 68    
Maximum Humidity 77    
Minimum Humidity 59    
Precipitation  
Precipitation 0.03 in 0.09 in 1.28 in (1989)
Month to date precipitation 0.56 1.57  
Year to date precipitation 30.46 30.62  
Sea Level Pressure  
Sea Level Pressure 30.00 in    
Wind  
Wind Speed 8 mph (West)    
Max Wind Speed 16 mph    
Max Gust Speed 23 mph    
Visibility 10 miles    
Events      
T = Trace of Precipitation, MM = Missing Value Source: NWS Daily Summary

Daily Weather History Graph

Daily Weather History Graph

Search for Another Location

Airport or City:

Trip Planner

Search our weather history database for the weather conditions in past years. The results will help you decide how hot, cold, wet, or windy it might be!

Date:

Astronomy

Oct. 16, 2013 Rise Set
Actual Time 7:16 AM CDT 6:23 PM CDT
Civil Twilight 6:49 AM CDT 6:50 PM CDT
Nautical Twilight 6:17 AM CDT 7:22 PM CDT
Astronomical Twilight 5:46 AM CDT 7:53 PM CDT
Moon 5:03 PM CDT (10/16) 4:44 AM CDT (10/16)
Length of Visible Light 12h 01m
Length of Day
11h 06m
Waxing Gibbous, 94% of the Moon is Illuminated
Oct 16
Waxing Gibbous
Oct 18
Full
Oct 26
Last Quarter
Nov 3
New
Nov 9
First Quarter

Hourly Weather History & Observations

Time (CDT) Temp. Windchill Dew Point Humidity Pressure Visibility Wind Dir Wind Speed Gust Speed Precip Events Conditions
12:54 AM 46.9 °F - 39.0 °F 74% 29.97 in 10.0 mi West 8.1 mph - N/A   Clear
1:40 AM 46.4 °F 44.3 °F 39.2 °F 76% 29.98 in 10.0 mi WSW 4.6 mph - N/A   Mostly Cloudy
1:54 AM 46.9 °F - 39.0 °F 74% 29.98 in 10.0 mi West 5.8 mph - N/A   Overcast
2:54 AM 48.0 °F - 39.0 °F 71% 29.98 in 10.0 mi West 6.9 mph 16.1 mph N/A   Overcast
3:54 AM 48.9 °F - 39.0 °F 69% 29.97 in 10.0 mi West 9.2 mph 18.4 mph N/A   Overcast
4:54 AM 48.9 °F - 37.9 °F 66% 29.97 in 10.0 mi WNW 15.0 mph - N/A   Overcast
5:54 AM 48.9 °F - 37.9 °F 66% 29.97 in 10.0 mi West 13.8 mph - N/A   Overcast
6:54 AM 48.9 °F - 37.9 °F 66% 29.98 in 10.0 mi WNW 12.7 mph - N/A   Overcast
7:54 AM 48.9 °F - 37.9 °F 66% 30.00 in 10.0 mi West 8.1 mph - N/A   Overcast
8:54 AM 48.0 °F - 37.9 °F 68% 30.02 in 10.0 mi West 10.4 mph - N/A   Overcast
9:54 AM 48.9 °F - 37.9 °F 66% 30.03 in 10.0 mi West 8.1 mph - N/A   Overcast
10:54 AM 48.9 °F - 39.0 °F 69% 30.04 in 10.0 mi West 9.2 mph - N/A   Overcast
11:54 AM 51.1 °F - 39.0 °F 63% 30.04 in 10.0 mi West 10.4 mph - N/A   Overcast
12:54 PM 52.0 °F - 39.9 °F 63% 30.02 in 10.0 mi West 9.2 mph - N/A   Overcast
1:54 PM 52.0 °F - 39.9 °F 63% 30.01 in 10.0 mi West 9.2 mph - N/A   Overcast
2:46 PM 53.6 °F - 39.2 °F 58% 29.99 in 10.0 mi WNW 12.7 mph - N/A   Overcast
2:54 PM 53.1 °F - 39.0 °F 59% 29.99 in 10.0 mi West 9.2 mph - N/A   Overcast
3:54 PM 53.1 °F - 39.9 °F 61% 29.98 in 10.0 mi West 11.5 mph - N/A   Overcast
4:54 PM 54.0 °F - 39.9 °F 59% 29.98 in 10.0 mi WNW 8.1 mph - N/A   Overcast
5:54 PM 52.0 °F - 39.9 °F 63% 29.99 in 10.0 mi WNW 8.1 mph - N/A   Overcast
6:54 PM 51.1 °F - 39.9 °F 66% 30.00 in 10.0 mi NW 5.8 mph - N/A   Overcast
7:54 PM 50.0 °F - 39.9 °F 68% 30.01 in 10.0 mi WNW 4.6 mph - N/A   Overcast
8:54 PM 50.0 °F - 39.9 °F 68% 30.02 in 10.0 mi WNW 4.6 mph - N/A   Overcast
9:54 PM 50.0 °F - 39.9 °F 68% 30.02 in 10.0 mi West 5.8 mph - N/A   Overcast
10:54 PM 50.0 °F - 39.9 °F 68% 30.01 in 10.0 mi West 3.5 mph - N/A   Overcast
11:54 PM 48.9 °F - 41.0 °F 74% 30.00 in 10.0 mi Calm Calm - N/A   Overcast